Location: Écuvilly
(49.6505°N, 2.9206°E)
Time: 16:53:07
(UTC+00:00)

Okean 2 Rocket - Pass Details

Date: 17 November 2025
Orbit: 611 x 635 km, 82.5° (Epoch: 09 December)

Event Time Altitude Azimuth Distance (km) Brightness Sun altitude
Rises 18:29:57 0° 194° (SSW) 2,886 6.7 -23.6°
Reaches altitude 10° 18:32:11 10° 196° (SSW) 1,981 5.8 -23.9°
Maximum altitude 18:36:33 72° 281° (W) 653 3.2 -24.6°
Enters shadow 18:37:50 45° 352° (N) 849 3.7 -24.8°
